This is the latest recevied weather packets stored in our database for station/object KJ7BRE-1. If no packets are shown the sender has not sent any weather packets the latest 10 day(s).
| Time | Temp. | Humidity | Pressure | Rain* | Wind** | Luminosity | Snow |
|---|---|---|---|---|---|---|---|
| 1778262376 | 15° C | 59% | 1015.6 hPa | 0 mm | - | - | - |
| 1778262075 | 15° C | 60% | 1015.9 hPa | 0 mm | - | - | - |
| 1778261773 | 15° C | 59% | 1015.9 hPa | 0 mm | - | - | - |
| 1778261472 | 14.44° C | 63% | 1015.6 hPa | 0 mm | - | - | - |
| 1778261171 | 14.44° C | 64% | 1015.6 hPa | 0 mm | - | - | - |
| 1778260870 | 13.33° C | 65% | 1015.6 hPa | 0 mm | - | - | - |
| 1778260569 | 13.33° C | 66% | 1015.6 hPa | 0 mm | - | - | - |
| 1778260267 | 13.33° C | 65% | 1015.6 hPa | 0 mm | - | - | - |
| 1778259966 | 13.89° C | 64% | 1015.6 hPa | 0 mm | - | - | - |
| 1778259665 | 13.33° C | 67% | 1015.6 hPa | 0 mm | - | - | - |
| 1778259364 | 12.78° C | 67% | 1015.2 hPa | 0 mm | - | - | - |
| 1778259062 | 12.78° C | 66% | 1015.2 hPa | 0 mm | - | - | - |
| 1778258761 | 12.78° C | 65% | 1015.2 hPa | 0 mm | - | - | - |
| 1778258460 | 13.33° C | 66% | 1014.9 hPa | 0 mm | - | - | - |
| 1778258159 | 13.33° C | 65% | 1014.9 hPa | 0 mm | - | - | - |
| 1778257857 | 12.78° C | 66% | 1014.9 hPa | 0 mm | - | - | - |
| 1778257556 | 12.78° C | 67% | 1014.9 hPa | 0 mm | - | - | - |
| 1778257255 | 12.78° C | 67% | 1015.2 hPa | 0 mm | - | - | - |
| 1778256954 | 12.78° C | 66% | 1014.9 hPa | 0 mm | - | - | - |
| 1778256652 | 12.78° C | 66% | 1014.6 hPa | 0 mm | - | - | - |
| 1778256351 | 12.78° C | 66% | 1014.9 hPa | 0 mm | - | - | - |
| 1778256050 | 12.22° C | 67% | 1014.6 hPa | 0 mm | - | - | - |
| 1778255749 | 12.78° C | 68% | 1014.9 hPa | 0 mm | - | - | - |
| 1778255448 | 12.22° C | 68% | 1014.9 hPa | 0 mm | - | - | - |
| 1778255146 | 12.22° C | 68% | 1014.9 hPa | 0 mm | - | - | - |
* Rain latest hour (hover to see other rain measurements)
** Current wind speed in m/s (hover to see current wind gust speed)